Stations météo

réclame
Mon MeteoGroup
Sveg A, Suède (2327): Température de l'air & dewpoint: 13.01.2018 23:00:00 - 19.01.2018 23:00:00 (CET)Sveg A, Suède (2327): Vitesse du vent & gusts: 13.01.2018 23:00:00 - 19.01.2018 23:00:00 (CET)Sveg A, Suède (2327): Direction du vent: 13.01.2018 23:00:00 - 19.01.2018 23:00:00 (CET)Sveg A, Suède (2327): reduced air pressure: 13.01.2018 23:00:00 - 19.01.2018 23:00:00 (CET)Sveg A, Suède (2327): visibility: 13.01.2018 23:00:00 - 19.01.2018 23:00:00 (CET)Sveg A, Suède (2327): Quantités de précipitations: 13.01.2018 23:00:00 - 19.01.2018 23:00:00 (CET)
Date & Time tt [°C] td [°C] ff [km/h] ff [knt] fx [km/h] fx [knt] dd ppp [hPa] vv [km] rr [mm]
19.01.2018 23:00:00 -5,7 -6,6 6 4 11 6 E 1004,8 16 0,0
19.01.2018 22:00:00 -5,6 -6,6 9 5 13 7 ESE 1004,6 14 0,1
19.01.2018 21:00:00 -6,2 -7,1 7 4 10 5 E 1004,4 11 0,0
19.01.2018 20:00:00 -6,4 -7,3 6 4 13 7 ENE 1003,9 6 0,0
19.01.2018 19:00:00 -6,6 -7,7 9 5 13 7 E 1003,5 29 0,0
19.01.2018 18:00:00 -6,8 -7,9 8 5 12 7 NE 1003,4 32 0,0
19.01.2018 17:00:00 -6,5 -7,9 6 4 13 7 ESE 1003,3 50 0,0
19.01.2018 16:00:00 -6,8 -7,9 9 5 14 7 SE 1002,8 26 0,0
19.01.2018 15:00:00 -6,5 -7,7 6 4 9 5 E 1002,8 38 0,0
19.01.2018 14:00:00 -6,9 -8,0 7 4 11 6 ENE 1002,5 10 0,0
19.01.2018 13:00:00 -7,2 -8,3 9 5 13 7 E 1002,3 15 0,0
19.01.2018 12:00:00 -7,2 -8,4 10 5 16 9 ESE 1002,4 33 0,0
19.01.2018 11:00:00 -8,1 -9,2 7 4 12 7 E 1002,2 32 0,0
19.01.2018 10:00:00 -8,4 -9,5 7 4 12 6 E 1002,0 17 0,0
19.01.2018 09:00:00 -9,1 -10,2 10 5 12 6 E 1001,5 32 0,0
19.01.2018 08:00:00 -9,1 -10,2 5 3 11 6 E 1001,0 29 0,0
19.01.2018 07:00:00 -9,3 -10,4 9 5 13 7 E 1000,7 15 0,0
19.01.2018 06:00:00 -9,6 -10,8 11 6 14 7 ENE 1000,4 20 0,0
19.01.2018 05:00:00 -9,6 -10,8 6 3 13 7 E 1000,4 14 0,1
19.01.2018 04:00:00 -9,7 -10,9 6 4 13 7 E 1000,3 9 0,1
19.01.2018 03:00:00 -9,7 -10,9 9 5 11 6 ENE 1000,2 2,0 0,1
19.01.2018 02:00:00 -9,7 -10,9 7 4 10 6 E 999,8 4,6 0,2
19.01.2018 01:00:00 -9,6 -10,8 6 3 10 5 E 999,9 1,7 0,2
19.01.2018 00:00:00 -9,6 -10,8 5 3 7 4 E 999,7 13 0,1
18.01.2018 23:00:00 -9,5 -10,7 5 3 9 5 E 999,4 8 0,0
18.01.2018 22:00:00 -9,5 -10,7 7 4 11 6 E 999,3 7 0,1
18.01.2018 21:00:00 -9,3 -10,5 7 4 11 6 E 999,0 4,8 0,0
18.01.2018 20:00:00 -9,3 -10,5 5 3 12 7 ESE 998,6 9 0,0
18.01.2018 19:00:00 -9,1 -10,2 7 4 10 5 E 998,5 7 0,0
18.01.2018 18:00:00 -9,3 -10,5 8 4 10 6 ENE 998,3 8 0,0
18.01.2018 17:00:00 -9,1 -10,4 7 4 11 6 E 998,1 12 0,0
18.01.2018 16:00:00 -8,9 -10,1 6 3 10 5 E 997,7 10 0,0
18.01.2018 15:00:00 -8,6 -9,8 6 4 9 5 E 997,6 4,6 0,1
18.01.2018 14:00:00 -9,1 -10,4 7 4 13 7 E 997,4 5 0,0
18.01.2018 13:00:00 -8,6 -9,9 7 4 10 6 E 997,2 4,1 0,1
18.01.2018 12:00:00 -8,9 -10,1 6 3 10 5 E 997,3 9 0,0
18.01.2018 11:00:00 -10,2 -11,0 7 4 9 5 E 997,4 18 0,0
18.01.2018 10:00:00 -10,3 -11,3 5 3 7 4 ENE 997,5 9 0,1
18.01.2018 09:00:00 -9,8 -10,9 6 3 10 5 SE 997,4 6 0,0
18.01.2018 08:00:00 -9,6 -10,7 7 4 19 10 ESE 997,1 10 0,0
18.01.2018 07:00:00 -8,9 -10,1 14 8 17 9 E 996,6 6 0,2
18.01.2018 06:00:00 -8,4 -9,5 13 7 16 9 E 996,8 3,0 0,1
18.01.2018 05:00:00 -9,5 -10,7 9 5 11 6 E 996,9 4,7 0,1
18.01.2018 04:00:00 -8,3 -9,4 5 3 10 6 E 996,9 4,7 0,1
18.01.2018 03:00:00 -8,0 -9,1 8 4 16 9 E 996,9 2,5 0,1
18.01.2018 02:00:00 -7,5 -9,0 13 7 24 13 E 996,7 4,4 0,1
18.01.2018 01:00:00 -7,1 -8,3 13 7 21 11 E 996,2 4,6 0,2
18.01.2018 00:00:00 -6,8 -7,9 15 8 23 13 E 995,9 1,5 0,2
17.01.2018 23:00:00 -6,4 -7,6 16 9 22 12 E 995,6 8 0,1
17.01.2018 22:00:00 -6,1 -7,2 16 8 23 12 E 995,2 7 0,1
17.01.2018 21:00:00 -5,9 -6,8 10 6 19 10 E 994,8 4,5 0,1
17.01.2018 20:00:00 -5,7 -6,6 11 6 16 9 E 994,5 6 0,0
17.01.2018 19:00:00 -5,4 -7,7 12 6 22 12 E 994,1 37 0,0
17.01.2018 18:00:00 -5,2 -7,5 16 8 26 14 E 993,5 40 0,0
17.01.2018 17:00:00 -5,2 -6,9 12 7 24 13 E 993,3 10 0,1
17.01.2018 16:00:00 -5,0 -7,3 15 8 26 14 E 992,6 20 0,0
17.01.2018 15:00:00 -5,0 -6,4 17 9 27 15 E 992,1 3,8 0,2
17.01.2018 14:00:00 -4,5 -5,7 14 8 26 14 E 991,4 2,8 0,2
17.01.2018 13:00:00 -4,4 -5,5 16 9 27 15 E 990,9 3,4 0,3
17.01.2018 12:00:00 -4,4 -5,2 17 9 30 16 E 990,4 1,5 0,5
17.01.2018 11:00:00 -4,1 -4,9 19 10 29 16 E 990,1 1,5 0,6
17.01.2018 10:00:00 -4,3 -5,0 11 6 22 12 E 989,8 2,2 0,3
17.01.2018 09:00:00 -4,1 -5,1 16 9 26 14 ESE 989,2 2,0 0,4
17.01.2018 08:00:00 -3,8 -4,8 16 9 27 15 E 988,5 2,3 0,3
17.01.2018 07:00:00 -3,5 -4,3 14 7 27 15 E 987,9 2,0 0,3
17.01.2018 06:00:00 -3,3 -4,0 18 10 32 17 E 987,1 1,9 0,6
17.01.2018 05:00:00 -3,0 -3,8 18 10 28 15 E 986,8 1,9 0,3
17.01.2018 04:00:00 -2,6 -3,1 14 8 25 14 E 986,6 2,5 0,1
17.01.2018 03:00:00 -2,2 -2,9 14 8 25 13 E 986,4 11 0,1
17.01.2018 02:00:00 -2,0 -2,6 16 8 29 15 E 986,2 2,9 0,1
17.01.2018 01:00:00 -2,0 -2,6 16 8 26 14 E 985,7 4,9 0,1
17.01.2018 00:00:00 -2,0 -2,8 17 9 34 18 ESE 985,4 3,4 0,4
16.01.2018 23:00:00 -2,2 -2,9 18 10 35 19 ESE 984,8 1,0 0,2
16.01.2018 22:00:00 -2,4 -3,1 21 11 34 18 ESE 984,3 1,3 0,4
16.01.2018 21:00:00 -2,3 -3,3 17 9 36 19 ESE 983,9 4,8 0,0
16.01.2018 20:00:00 -2,4 -3,4 20 11 40 21 ESE 983,7 6 0,0
16.01.2018 19:00:00 -2,2 -3,6 21 11 42 23 SE 983,2 13 0,0
16.01.2018 18:00:00 -2,3 -3,4 24 13 42 23 ESE 982,6 3,8 0,1
16.01.2018 17:00:00 -2,1 -3,2 24 13 41 22 ESE 982,6 4,7 0,1
16.01.2018 16:00:00 -2,2 -3,3 25 14 42 23 ESE 982,8 2,7 0,3
16.01.2018 15:00:00 -2,3 -3,3 22 12 43 23 ESE 982,9 1,9 0,2
16.01.2018 14:00:00 -2,3 -3,1 23 12 43 23 ESE 983,0 2,0 0,4
16.01.2018 13:00:00 -2,3 -2,9 22 12 40 22 ESE 983,9 1,2 0,6
16.01.2018 12:00:00 -2,3 -2,9 22 12 47 25 ESE 984,7 1,3 0,5
16.01.2018 11:00:00 -2,6 -3,1 21 12 37 20 ESE 985,4 1,2 0,5
16.01.2018 10:00:00 -2,8 -3,5 21 11 39 21 ESE 986,1 1,7 0,6
16.01.2018 09:00:00 -3,0 -4,0 26 14 45 24 ESE 986,6 1,4 0,2
16.01.2018 08:00:00 -2,9 -3,9 27 14 47 26 ESE 987,0 2,3 0,2
16.01.2018 07:00:00 -2,9 -3,7 26 14 46 25 ESE 987,6 2,4 0,2
16.01.2018 06:00:00 -3,0 -3,8 19 10 37 20 ESE 988,5 1,9 0,3
16.01.2018 05:00:00 -2,9 -4,0 21 11 39 21 ESE 989,3 2,5 0,2
16.01.2018 04:00:00 -3,0 -4,3 20 11 37 20 ESE 990,7 3,3 0,1
16.01.2018 03:00:00 -3,3 -4,7 19 10 33 18 ESE 992,1 4,8 0,2
16.01.2018 02:00:00 -4,0 -5,4 19 10 38 21 ESE 993,5 2,7 0,2
16.01.2018 01:00:00 -4,6 -6,0 16 9 29 16 ESE 994,8 3,8 0,2
16.01.2018 00:00:00 -5,0 -6,7 15 8 39 21 ESE 996,3 3,8 0,1
15.01.2018 23:00:00 -5,4 -6,9 23 13 46 25 SE 997,2 3,8 0,0
15.01.2018 22:00:00 -5,7 -7,1 27 15 47 25 SE 998,4 2,4 0,0
15.01.2018 21:00:00 -5,9 -7,4 26 14 51 28 SE 999,8 - 0,0
15.01.2018 20:00:00 -6,2 -7,7 25 14 49 26 SE 1000,9 - 0,0
15.01.2018 19:00:00 -6,4 -8,1 24 13 44 24 SE 1002,2 12 0,0
15.01.2018 18:00:00 -6,6 -8,3 22 12 35 19 SE 1003,9 13 0,0
15.01.2018 17:00:00 -6,6 -8,4 14 8 38 20 ESE 1005,4 20 0,0
15.01.2018 16:00:00 -6,4 -8,5 22 12 42 23 SE 1006,4 12 0,0
15.01.2018 15:00:00 -6,4 -8,7 24 13 46 25 SE 1007,1 9 0,0
15.01.2018 14:00:00 -6,4 -8,8 25 14 43 23 SE 1008,3 7 0,0
15.01.2018 13:00:00 -6,3 -8,7 20 11 35 19 SE 1009,6 10 0,0
15.01.2018 12:00:00 -6,2 -8,8 16 9 35 19 SSE 1011,3 10 0,0
15.01.2018 11:00:00 -6,2 -8,8 17 9 34 19 SSE 1012,4 11 0,0
15.01.2018 10:00:00 -6,1 -8,8 18 10 36 19 SSE 1012,9 21 0,0
15.01.2018 09:00:00 -5,8 -8,9 17 9 36 19 S 1013,7 18 0,0
15.01.2018 08:00:00 -5,6 -8,7 15 8 38 20 SSE 1014,0 40 0,0
15.01.2018 07:00:00 -5,4 -8,6 17 9 34 18 SSE 1014,7 42 0,0
15.01.2018 06:00:00 -5,1 -8,5 16 8 30 16 SSE 1015,4 46 0,0
15.01.2018 05:00:00 -5,1 -8,2 14 8 28 15 SE 1016,1 46 0,0
15.01.2018 04:00:00 -5,0 -8,2 15 8 40 21 SE 1017,4 50 0,0
15.01.2018 03:00:00 -5,0 -8,4 18 10 48 26 SSE 1018,8 40 0,0
15.01.2018 02:00:00 -5,0 -8,6 19 10 39 21 S 1020,1 12 0,0
15.01.2018 01:00:00 -4,9 -8,6 19 10 47 26 S 1021,1 10 0,0
15.01.2018 00:00:00 -4,9 -9,2 19 10 36 19 S 1021,7 30 0,0
14.01.2018 23:00:00 -5,7 -9,1 14 8 29 15 SSE 1022,4 50 0,0
14.01.2018 22:00:00 -6,2 -9,6 18 10 28 15 SSE 1022,8 33 0,0
14.01.2018 21:00:00 -6,3 -10,0 13 7 36 20 SSW 1023,9 7 0,0
14.01.2018 20:00:00 -6,0 -9,5 15 8 34 18 SSW 1024,4 20 0,0
14.01.2018 19:00:00 -5,8 -9,2 13 7 31 17 S 1024,8 29 0,0
14.01.2018 18:00:00 -5,8 -9,7 13 7 34 19 SSW 1025,8 23 0,0
14.01.2018 17:00:00 -5,8 -9,0 13 7 25 14 SSW 1026,7 16 0,0
14.01.2018 16:00:00 -5,7 -8,9 10 5 23 13 SSW 1027,5 19 0,0
14.01.2018 15:00:00 -5,7 -8,6 9 5 25 13 SSW 1028,1 27 0,0
14.01.2018 14:00:00 -5,5 -8,7 10 5 27 15 S 1028,6 30 0,0
14.01.2018 13:00:00 -5,6 -8,3 11 6 30 16 SSW 1029,4 49 0,0
14.01.2018 12:00:00 -5,5 -8,1 9 5 31 17 S 1030,2 41 0,0
14.01.2018 11:00:00 -5,7 -8,1 9 5 21 12 S 1030,8 39 0,0
14.01.2018 10:00:00 -5,8 -8,1 9 5 21 11 SSW 1031,3 45 0,0
14.01.2018 09:00:00 -6,0 -7,7 7 4 15 8 SSW 1031,5 50 0,0
14.01.2018 08:00:00 -6,3 -7,4 7 4 22 12 SSW 1031,9 50 0,0
14.01.2018 07:00:00 -6,5 -7,3 9 5 19 10 SSW 1032,3 46 0,0
14.01.2018 06:00:00 -11,7 -13,0 11 6 28 15 SW 1033,2 50 0,0
14.01.2018 05:00:00 -15,0 -16,7 1 1 6 4 NNW 1034,0 50 0,0
14.01.2018 04:00:00 -16,6 -18,3 3 2 7 4 WNW 1035,1 50 0,0
14.01.2018 03:00:00 -17,5 -19,4 3 2 8 4 NNW 1035,7 50 0,0
14.01.2018 02:00:00 -18,6 -20,6 4 2 7 4 WNW 1036,5 50 0,0
14.01.2018 01:00:00 -19,4 -21,6 4 2 8 4 NW 1037,0 50 0,0
14.01.2018 00:00:00 -20,2 -22,5 4 2 9 5 WNW 1037,5 50 0,0
13.01.2018 23:00:00 -20,9 -23,2 5 3 10 6 WNW 1038,2 50 0,0

tt = Température de l'air
td = dewpoint
ff = Vitesse du vent
fx = gusts
dd = Direction du vent
ppp = reduced air pressure
vv = visibility
rr = Quantités de précipitations

stations d'obs. à proximité